Flag for U.S.A. Weather past 2 weeks in Fort Bragg, California, U.S.A.

Now
58 °F

Clear.


Feels Like: 58 °F
Forecast: 53 / 65 °F
Wind: No wind

Location: Ukiah Municipal

Current Time: Oct 21, 2014 at 8:55:51 PM

Latest Report: Oct 21, 2014 at 7:56 PM


Visibility: 10 mi

Pressure: 30.03 "Hg

Humidity: 65%

Dew point: 46 °F

Location of Fort BraggLocation

Historic Weather in Fort Bragg — Graph

°F

Fort Bragg temperature yesterday

Maximum temperature yesterday: 67 °F (at 1:56 PM)
Minimum temperature yesterday: 51 °F (at 11:56 PM)
Average temperature yesterday: 59 °F

Past Weeks' High & Low Weather Summary

 TemperatureHumidityPressure
High98 °F (Oct 7, 1:56 PM)96% (Oct 21, 5:03 AM)30.13 "Hg (Oct 21, 5:03 AM)
Low46 °F (Oct 16, 6:56 AM)4% (Oct 12, 2:56 PM)29.79 "Hg (Oct 14, 5:56 PM)
Average64 °F60%29.94 "Hg
* Reported Oct 6 7:56 PM — Oct 21 7:56 PM, Fort Bragg, Weather by CustomWeather, © 2014

Note: Actual official high and low records may vary slightly from our data, if they occured in-between our weather recording intervals... More about our weather records

Advertising

Fort Bragg weather history for previous 24 hours

 ConditionsComfort  
Time TempWeatherWind HumidityBarometerVisibility
7:56 PM
Oct 21
58 °FClear.No wind65%30.03 "Hg10 mi
6:56 PM62 °FSunny.3 mph56%30.03 "Hg10 mi
5:56 PM64 °FSunny.5 mph52%30.02 "Hg10 mi
4:56 PM68 °FSunny.9 mph44%30.02 "Hg10 mi
3:56 PM69 °FSunny.7 mph39%30.03 "Hg10 mi
2:56 PM69 °FSunny.9 mph41%30.04 "Hg10 mi
1:56 PM68 °FSunny.3 mph44%30.04 "Hg10 mi
12:56 PM65 °FSunny.No wind49%30.07 "Hg10 mi
11:56 AM62 °FSunny.No wind56%30.10 "Hg10 mi
10:56 AM58 °FSunny.No wind67%30.12 "Hg10 mi
9:56 AM53 °FSunny.No wind80%30.13 "Hg10 mi
8:56 AM51 °FSunny.No wind83%30.13 "Hg10 mi
7:56 AM49 °FLow clouds.No wind93%30.12 "Hg10 mi
6:56 AM49 °FLow clouds.3 mph90%30.13 "Hg10 mi
5:56 AM48 °FMostly cloudy.No wind93%30.11 "Hg10 mi
5:03 AM46 °FFog.No wind96%30.11 "Hg2 mi
4:56 AM46 °FFog.No wind93%30.10 "Hg6 mi
3:56 AM47 °FPassing clouds.No wind90%30.10 "Hg10 mi
2:56 AM47 °FClear.No wind93%30.09 "Hg10 mi
1:56 AM49 °FOvercast.No wind90%30.08 "Hg10 mi
12:56 AM49 °FClear.No wind90%30.06 "Hg10 mi
11:56 PM
Oct 20
51 °FClear.No wind86%30.04 "Hg10 mi
10:56 PM52 °FClear.No wind89%30.03 "Hg10 mi
9:56 PM54 °FPassing clouds.5 mph83%30.01 "Hg10 mi
8:56 PM55 °FPassing clouds.3 mph80%29.99 "Hg10 mi
Weather by CustomWeather, © 2014

See weather overviewHow to use our weather pages